Stündliche Wetter Celiny

Heute, 19 Januar, Dienstag

Zeit Temperatur Niederschläge Wind Luftdruck Luftfeuchtigkeit
00:00 -10°C° 0 mm 2 m/S 733 mmHg 90%
01:00 -10°C° 0 mm 2 m/S 733 mmHg 91%
02:00 -10°C° 0.2 mm 3 m/S 732 mmHg 93%
03:00 -9°C° 0.2 mm 3 m/S 732 mmHg 94%
04:00 -8°C° 0.2 mm 3 m/S 731 mmHg 95%
05:00 -7°C° 0.2 mm 3 m/S 731 mmHg 95%
06:00 -7°C° 0.2 mm 4 m/S 731 mmHg 95%
07:00 -5°C° 0.2 mm 4 m/S 731 mmHg 95%
08:00 -5°C° 0.1 mm 4 m/S 731 mmHg 94%
09:00 -5°C° 0.1 mm 5 m/S 731 mmHg 94%
10:00 -4°C° 0.1 mm 5 m/S 731 mmHg 93%
11:00 -4°C° 0.1 mm 5 m/S 731 mmHg 94%
12:00 -2°C° 0.1 mm 5 m/S 730 mmHg 95%
13:00 -2°C° 0.1 mm 5 m/S 730 mmHg 96%
14:00 -2°C° 0 mm 4 m/S 730 mmHg 94%
15:00 -2°C° 0 mm 3 m/S 730 mmHg 92%
16:00 -2°C° 0 mm 3 m/S 729 mmHg 90%
17:00 -2°C° 0 mm 3 m/S 729 mmHg 90%
18:00 -2°C° 0 mm 3 m/S 729 mmHg 90%
19:00 -2°C° 0 mm 3 m/S 728 mmHg 90%
20:00 -2°C° 0.1 mm 3 m/S 728 mmHg 90%
21:00 -2°C° 0.1 mm 3 m/S 728 mmHg 90%
22:00 -4°C° 0.1 mm 3 m/S 728 mmHg 91%
23:00 -2°C° 0.3 mm 3 m/S 727 mmHg 93%

Morgen, 20 Januar, Mittwoch

Zeit Temperatur Niederschläge Wind Luftdruck Luftfeuchtigkeit
00:00 -2°C° 0.3 mm 3 m/S 727 mmHg 95%
01:00 -3°C° 0.3 mm 4 m/S 727 mmHg 97%
02:00 -3°C° 0.7 mm 4 m/S 727 mmHg 97%
03:00 -2°C° 0.7 mm 5 m/S 727 mmHg 97%
04:00 -1°C° 0.7 mm 5 m/S 726 mmHg 97%
05:00 -1°C° 0.2 mm 5 m/S 727 mmHg 97%
06:00 -1°C° 0.2 mm 5 m/S 727 mmHg 97%
07:00 0°C° 0.2 mm 5 m/S 727 mmHg 97%
08:00 0°C° 0 mm 5 m/S 727 mmHg 97%
09:00 0°C° 0 mm 5 m/S 727 mmHg 97%
10:00 0°C° 0 mm 4 m/S 727 mmHg 97%
11:00 0°C° 0 mm 4 m/S 727 mmHg 97%
12:00 0°C° 0 mm 4 m/S 727 mmHg 98%
13:00 0°C° 0 mm 4 m/S 727 mmHg 99%
14:00 +1°C° 0 mm 3 m/S 727 mmHg 96%
15:00 +1°C° 0 mm 3 m/S 727 mmHg 92%
16:00 +1°C° 0 mm 3 m/S 727 mmHg 89%
17:00 +1°C° 0 mm 3 m/S 727 mmHg 87%
18:00 0°C° 0 mm 3 m/S 727 mmHg 84%
19:00 +1°C° 0 mm 2 m/S 727 mmHg 82%
20:00 +1°C° 0 mm 2 m/S 727 mmHg 82%
21:00 -1°C° 0 mm 2 m/S 727 mmHg 82%
22:00 -1°C° 0 mm 2 m/S 727 mmHg 81%
23:00 -1°C° 0 mm 2 m/S 726 mmHg 82%

übermorgen, 21 Januar, Donnerstag

Zeit Temperatur Niederschläge Wind Luftdruck Luftfeuchtigkeit
00:00 -2°C° 0 mm 2 m/S 726 mmHg 82%
01:00 -2°C° 0 mm 2 m/S 726 mmHg 83%
02:00 -2°C° 0 mm 2 m/S 726 mmHg 83%
03:00 -2°C° 0 mm 2 m/S 725 mmHg 84%
04:00 -2°C° 0 mm 2 m/S 725 mmHg 84%
05:00 -2°C° 0 mm 2 m/S 725 mmHg 84%
06:00 0°C° 0 mm 1 m/S 725 mmHg 85%
07:00 0°C° 0 mm 1 m/S 725 mmHg 85%
08:00 0°C° 0 mm 1 m/S 725 mmHg 88%
09:00 +1°C° 0 mm 1 m/S 724 mmHg 90%
10:00 +2°C° 0 mm 1 m/S 724 mmHg 93%
11:00 +3°C° 0 mm 1 m/S 724 mmHg 94%
12:00 +2°C° 0 mm 2 m/S 724 mmHg 95%
13:00 +3°C° 0 mm 2 m/S 723 mmHg 96%
14:00 +2°C° 0 mm 2 m/S 723 mmHg 93%
15:00 +2°C° 0 mm 2 m/S 723 mmHg 90%
16:00 +1°C° 0 mm 2 m/S 722 mmHg 88%
17:00 0°C° 0 mm 3 m/S 722 mmHg 88%
18:00 0°C° 0 mm 3 m/S 722 mmHg 88%
19:00 0°C° 0 mm 3 m/S 722 mmHg 88%
20:00 0°C° 0 mm 3 m/S 722 mmHg 87%
21:00 0°C° 0 mm 3 m/S 722 mmHg 87%
22:00 0°C° 0 mm 3 m/S 722 mmHg 86%
23:00 +1°C° 0 mm 3 m/S 722 mmHg 85%

22 Januar, Freitag

Zeit Temperatur Niederschläge Wind Luftdruck Luftfeuchtigkeit
00:00 +2°C° 0 mm 2 m/S 722 mmHg 84%
01:00 +2°C° 0 mm 2 m/S 722 mmHg 83%
02:00 +2°C° 0 mm 2 m/S 721 mmHg 83%
03:00 +1°C° 0 mm 3 m/S 721 mmHg 84%
04:00 +1°C° 0 mm 3 m/S 720 mmHg 85%
05:00 +1°C° 0 mm 3 m/S 720 mmHg 85%
06:00 +1°C° 0 mm 3 m/S 719 mmHg 85%
07:00 +1°C° 0 mm 3 m/S 719 mmHg 85%
08:00 +1°C° 0 mm 3 m/S 718 mmHg 88%
09:00 +2°C° 0 mm 3 m/S 718 mmHg 91%
10:00 +1°C° 0 mm 4 m/S 718 mmHg 93%
11:00 +3°C° 0 mm 3 m/S 718 mmHg 94%
12:00 +3°C° 0 mm 3 m/S 718 mmHg 96%
13:00 +3°C° 0 mm 3 m/S 718 mmHg 97%
14:00 +3°C° 0 mm 3 m/S 718 mmHg 95%
15:00 +4°C° 0 mm 2 m/S 718 mmHg 93%
16:00 +3°C° 0 mm 2 m/S 717 mmHg 91%
17:00 +3°C° 0.8 mm 2 m/S 717 mmHg 92%
18:00 +3°C° 0.8 mm 2 m/S 717 mmHg 94%
19:00 +3°C° 0.8 mm 2 m/S 717 mmHg 95%
20:00 +2°C° 2 mm 2 m/S 718 mmHg 96%
21:00 +1°C° 2 mm 3 m/S 718 mmHg 97%
22:00 0°C° 2 mm 4 m/S 718 mmHg 98%
23:00 0°C° 0.1 mm 4 m/S 719 mmHg 97%

23 Januar, Samstag

Zeit Temperatur Niederschläge Wind Luftdruck Luftfeuchtigkeit
00:00 -1°C° 0.1 mm 4 m/S 720 mmHg 97%
01:00 -1°C° 0.1 mm 4 m/S 720 mmHg 97%
02:00 -1°C° 0 mm 4 m/S 721 mmHg 96%
03:00 -1°C° 0 mm 3 m/S 721 mmHg 96%
04:00 -1°C° 0 mm 2 m/S 722 mmHg 96%
05:00 -1°C° 0 mm 2 m/S 722 mmHg 96%
06:00 -2°C° 0 mm 2 m/S 722 mmHg 95%
07:00 -2°C° 0 mm 2 m/S 723 mmHg 95%
08:00 +1°C° 0 mm 1 m/S 723 mmHg 94%
09:00 +1°C° 0 mm 1 m/S 723 mmHg 93%
10:00 +1°C° 0 mm 1 m/S 723 mmHg 92%
11:00 +2°C° 0 mm 1 m/S 723 mmHg 92%
12:00 +1°C° 0 mm 2 m/S 722 mmHg 91%
13:00 +1°C° 0 mm 2 m/S 722 mmHg 90%
14:00 0°C° 0 mm 3 m/S 721 mmHg 90%
15:00 -1°C° 0 mm 4 m/S 720 mmHg 91%
16:00 -1°C° 0 mm 4 m/S 720 mmHg 91%
17:00 -2°C° 0.1 mm 4 m/S 719 mmHg 93%
18:00 -2°C° 0.1 mm 4 m/S 718 mmHg 94%
19:00 -2°C° 0.1 mm 4 m/S 718 mmHg 96%
20:00 -2°C° 1.3 mm 4 m/S 717 mmHg 97%
21:00 -1°C° 1.3 mm 4 m/S 716 mmHg 97%
22:00 -1°C° 1.3 mm 4 m/S 715 mmHg 98%
23:00 0°C° 1.4 mm 3 m/S 715 mmHg 98%

24 Januar, Sonntag

Zeit Temperatur Niederschläge Wind Luftdruck Luftfeuchtigkeit
00:00 +1°C° 1.4 mm 2 m/S 714 mmHg 98%
01:00 -1°C° 1.4 mm 2 m/S 713 mmHg 99%
02:00 -1°C° 1.3 mm 3 m/S 713 mmHg 98%
03:00 -2°C° 1.3 mm 4 m/S 712 mmHg 98%
04:00 -3°C° 1.3 mm 6 m/S 712 mmHg 97%
05:00 -3°C° 0.3 mm 6 m/S 712 mmHg 94%
06:00 -3°C° 0.3 mm 7 m/S 712 mmHg 91%
07:00 -3°C° 0.3 mm 7 m/S 713 mmHg 88%
08:00 -3°C° 0 mm 7 m/S 713 mmHg 86%
09:00 -4°C° 0 mm 8 m/S 714 mmHg 84%
10:00 -2°C° 0 mm 8 m/S 714 mmHg 81%
11:00 -2°C° 0 mm 8 m/S 715 mmHg 81%
12:00 -2°C° 0 mm 8 m/S 715 mmHg 81%
13:00 -2°C° 0 mm 8 m/S 715 mmHg 81%
14:00 -2°C° 0 mm 7 m/S 716 mmHg 81%
15:00 -2°C° 0 mm 6 m/S 716 mmHg 81%
16:00 -3°C° 0 mm 6 m/S 716 mmHg 80%
17:00 -3°C° 0 mm 6 m/S 716 mmHg 80%
18:00 -3°C° 0 mm 6 m/S 716 mmHg 80%
19:00 -4°C° 0 mm 6 m/S 717 mmHg 81%
20:00 -4°C° 0 mm 6 m/S 717 mmHg 81%
21:00 -4°C° 0 mm 5 m/S 717 mmHg 82%
22:00 -4°C° 0 mm 5 m/S 717 mmHg 83%
23:00 -4°C° 0 mm 5 m/S 717 mmHg 84%
Mehr zeigen

Wir brauchen deine Erlaubnis

Meteoprog und unser Service Anbieter werden persönliche Daten aufbewahren, so wie Cookies, Geräte Bezeichnung oder ähnliche Technologien von deinem Gerät und Prozess, so wie Persönliche Daten Inhalte und Werbungen, genauso wie social Media und den Verkehr zu analysieren.

  • Aufbewahrung und/oder Zugang zu deiner Geräte Informationen.

    Cookies, Geräte Bezeichnung oder andere Informationen, können aufbewahrt oder Zugang zu deinem Gerät erhalten, für den Grund, der oben angegeben wird.

  • Personalisierte Werbung und Inhalte, Messungen, Einblick in das Publikum und Produkt Entwicklung.

    Werbungen und Inhalte können personalisiert werden, basierend auf ein Profil. Mehr Daten können besser personalisierte Werbungen und Inhalte hinzufügen. Werbung und Inhalte können gezeigt und gemessen werden. Einblicke über das Publikum, welche die Werbung gesehen haben und den Inhalt, können abgeleitet werden. So wie Daten können genutzt werden, um es zu verbessern oder die Benutzer Erfahrung zu verbessern das System und die Software.

Wenn du “Ich stimme zu” klickst, erlaubst du uns, die Cookies zu benutzen die Geräte Bezeichnung, den Web oder ähnliche Technologien zu benutzen. Deine Settings, können in deinem Gerät bei deinem Browser geändert werden.

Für den bestimmten Zweck, berechtigten Interessen beruhen darauf, mehr als auf den Inhalt. Du kannst mehr darüber in unseren Privaten und Cookie Politik lesen.